AYN7394 UATT-UACC

Flight info

Callsign AYN7394
Flight time 1h 41m
Altitude 37000
Route LITBA5C LITBA DCT ARK W358 TUSEP Z746 VETUB VETUB2H
Aircraft A320/M-SDE3FGHIRWY/LB1

Departure

Time 2026-05-04 14:54
Airport Aktobe International Airport (UATT)

Arrival

Time 2026-05-04 16:35
Airport Nursultan Nazarbayev International Airport (UACC)
Time Latitude Longitude Altitude Speed Heading
2026-05-04 14:42 50.24835 57.20978 738 ft 0 kts 45°
2026-05-04 14:43 50.24824 57.20961 737 ft 4 kts 44°
2026-05-04 14:43 50.24805 57.20932 738 ft 4 kts 43°
2026-05-04 14:43 50.24785 57.20904 737 ft 4 kts 40°
2026-05-04 14:44 50.24764 57.20878 738 ft 4 kts 34°
2026-05-04 14:44 50.24741 57.20857 735 ft 4 kts 12°
2026-05-04 14:44 50.24723 57.20859 737 ft 1 kts 315°
2026-05-04 14:44 50.24720 57.20863 736 ft 0 kts 315°
2026-05-04 14:48 50.24721 57.20862 736 ft 1 kts 315°
2026-05-04 14:48 50.24729 57.20849 736 ft 3 kts 315°
2026-05-04 14:48 50.24735 57.20825 735 ft 2 kts 246°
2026-05-04 14:49 50.24723 57.20795 737 ft 4 kts 234°
2026-05-04 14:49 50.24699 57.20753 738 ft 6 kts 225°
2026-05-04 14:49 50.24664 57.20698 738 ft 8 kts 224°
2026-05-04 14:49 50.24620 57.20631 739 ft 10 kts 224°
2026-05-04 14:50 50.24625 57.20524 737 ft 13 kts 315°
2026-05-04 14:50 50.24669 57.20455 737 ft 14 kts 315°
2026-05-04 14:50 50.24742 57.20342 738 ft 15 kts 316°
2026-05-04 14:50 50.24855 57.20177 740 ft 18 kts 318°
2026-05-04 14:51 50.24949 57.20040 738 ft 20 kts 316°
2026-05-04 14:51 50.25017 57.19938 740 ft 21 kts 315°
2026-05-04 14:51 50.25124 57.19762 736 ft 24 kts 313°
2026-05-04 14:51 50.25245 57.19572 737 ft 25 kts 316°
2026-05-04 14:52 50.25375 57.19376 739 ft 26 kts 316°
2026-05-04 14:52 50.25510 57.19173 740 ft 27 kts 316°
2026-05-04 14:52 50.25627 57.19044 739 ft 16 kts 314°
2026-05-04 14:52 50.25619 57.19001 737 ft 4 kts 194°
2026-05-04 14:53 50.25600 57.19023 739 ft 4 kts 141°
2026-05-04 14:53 50.25576 57.19057 739 ft 5 kts 136°
2026-05-04 14:53 50.25550 57.19097 740 ft 6 kts 134°
2026-05-04 14:53 50.25397 57.19342 739 ft 67 kts 135°
2026-05-04 14:54 50.24910 57.20091 740 ft 126 kts 134°
2026-05-04 14:54 50.24186 57.21205 744 ft 169 kts 136°
2026-05-04 14:54 50.23314 57.22526 1208 ft 178 kts 136°
2026-05-04 14:54 50.22499 57.24015 1902 ft 180 kts 129°
2026-05-04 14:55 50.21907 57.25751 2519 ft 190 kts 105°
2026-05-04 14:55 50.21955 57.27930 2843 ft 216 kts 71°
2026-05-04 14:55 50.22858 57.29928 3180 ft 236 kts 46°
2026-05-04 14:55 50.24064 57.31874 3502 ft 262 kts 46°
2026-05-04 14:56 50.25365 57.33975 4072 ft 278 kts 47°
2026-05-04 14:56 50.26426 57.36541 4853 ft 285 kts 73°
2026-05-04 14:56 50.26739 57.39613 5644 ft 288 kts 89°
2026-05-04 14:56 50.26895 57.42768 6455 ft 294 kts 90°
2026-05-04 14:57 50.27048 57.45988 7239 ft 299 kts 90°
2026-05-04 14:57 50.27203 57.49226 8017 ft 304 kts 90°
2026-05-04 14:57 50.27366 57.52559 8819 ft 309 kts 90°
2026-05-04 14:57 50.27532 57.55941 9615 ft 314 kts 91°
2026-05-04 14:58 50.27701 57.59415 10137 ft 329 kts 91°
2026-05-04 14:58 50.27873 57.63060 10360 ft 352 kts 90°
2026-05-04 14:58 50.28058 57.66955 10856 ft 362 kts 90°
2026-05-04 14:58 50.28251 57.70926 11517 ft 367 kts 90°
2026-05-04 14:59 50.28447 57.74935 12192 ft 372 kts 90°
2026-05-04 14:59 50.28645 57.79001 12870 ft 377 kts 90°
2026-05-04 14:59 50.29041 57.87236 14139 ft 385 kts 90°
2026-05-04 15:00 50.29240 57.91440 14677 ft 389 kts 90°
2026-05-04 15:00 50.29439 57.95673 14850 ft 390 kts 90°
2026-05-04 15:00 50.29636 57.99915 14896 ft 390 kts 90°
2026-05-04 15:01 50.30019 58.08397 14898 ft 390 kts 90°
2026-05-04 15:01 50.30206 58.12588 14897 ft 390 kts 90°
2026-05-04 15:01 50.30395 58.16832 14896 ft 389 kts 90°
2026-05-04 15:01 50.30582 58.21076 14898 ft 389 kts 90°
2026-05-04 15:02 50.30764 58.25261 14897 ft 389 kts 90°
2026-05-04 15:02 50.30947 58.29481 14896 ft 389 kts 90°
2026-05-04 15:02 50.31128 58.33706 14896 ft 389 kts 90°
2026-05-04 15:02 50.31308 58.37928 14901 ft 389 kts 90°
2026-05-04 15:03 50.31479 58.42185 15409 ft 393 kts 90°
2026-05-04 15:03 50.31642 58.46460 16061 ft 395 kts 90°
2026-05-04 15:03 50.31797 58.50753 16656 ft 397 kts 90°
2026-05-04 15:03 50.31949 58.55102 17253 ft 401 kts 90°
2026-05-04 15:04 50.32101 58.59474 17841 ft 404 kts 90°
2026-05-04 15:04 50.32256 58.63908 18382 ft 408 kts 90°
2026-05-04 15:04 50.32412 58.68298 18886 ft 411 kts 90°
2026-05-04 15:04 50.32572 58.72789 19411 ft 415 kts 90°
2026-05-04 15:05 50.32732 58.77311 19943 ft 418 kts 90°
2026-05-04 15:05 50.32890 58.81873 20471 ft 421 kts 90°
2026-05-04 15:05 50.33045 58.86470 20951 ft 424 kts 90°
2026-05-04 15:05 50.33199 58.91098 21436 ft 427 kts 90°
2026-05-04 15:06 50.33351 58.95769 21907 ft 430 kts 90°
2026-05-04 15:06 50.33504 59.00463 22376 ft 433 kts 90°
2026-05-04 15:06 50.33654 59.05137 22818 ft 437 kts 90°
2026-05-04 15:07 50.33958 59.14710 23686 ft 444 kts 89°
2026-05-04 15:07 50.34109 59.19556 24074 ft 446 kts 90°
2026-05-04 15:07 50.34255 59.24427 24471 ft 449 kts 90°
2026-05-04 15:07 50.34401 59.29324 24855 ft 451 kts 90°
2026-05-04 15:08 50.34547 59.34241 25230 ft 454 kts 90°
2026-05-04 15:08 50.34694 59.39192 25625 ft 456 kts 90°
2026-05-04 15:08 50.34839 59.44171 26016 ft 459 kts 90°
2026-05-04 15:08 50.34981 59.49171 26399 ft 461 kts 90°
2026-05-04 15:09 50.35121 59.54206 26777 ft 463 kts 90°
2026-05-04 15:09 50.35258 59.59257 27150 ft 465 kts 90°
2026-05-04 15:09 50.35392 59.64266 27522 ft 467 kts 90°
2026-05-04 15:10 50.35663 59.74518 28286 ft 472 kts 90°
2026-05-04 15:10 50.35798 59.79677 28675 ft 474 kts 90°
2026-05-04 15:10 50.36054 59.89970 29433 ft 478 kts 90°
2026-05-04 15:11 50.36179 59.95194 29806 ft 480 kts 90°
2026-05-04 15:11 50.36302 60.00454 30144 ft 482 kts 90°
2026-05-04 15:11 50.36424 60.05726 30448 ft 484 kts 90°
2026-05-04 15:11 50.36546 60.11000 30827 ft 484 kts 90°
2026-05-04 15:12 50.36667 60.16278 31268 ft 483 kts 90°
2026-05-04 15:12 50.36784 60.21537 31690 ft 483 kts 91°
2026-05-04 15:12 50.36898 60.26796 32114 ft 482 kts 91°
2026-05-04 15:12 50.37008 60.32049 32536 ft 482 kts 91°
2026-05-04 15:13 50.37112 60.37232 32952 ft 482 kts 91°
2026-05-04 15:13 50.37217 60.42484 33365 ft 481 kts 91°
2026-05-04 15:13 50.37321 60.47726 33792 ft 481 kts 91°
2026-05-04 15:13 50.37425 60.52972 34172 ft 480 kts 91°
2026-05-04 15:14 50.37525 60.58212 34531 ft 480 kts 91°
2026-05-04 15:14 50.37623 60.63445 34882 ft 479 kts 91°
2026-05-04 15:14 50.37716 60.68590 35218 ft 478 kts 91°
2026-05-04 15:14 50.37807 60.73801 35564 ft 478 kts 91°
2026-05-04 15:15 50.37895 60.79005 35898 ft 477 kts 90°
2026-05-04 15:15 50.37982 60.84209 36224 ft 477 kts 90°
2026-05-04 15:15 50.38063 60.89403 36536 ft 476 kts 90°
2026-05-04 15:16 50.38228 60.99788 36926 ft 478 kts 90°
2026-05-04 15:16 50.38308 61.05017 36935 ft 480 kts 90°
2026-05-04 15:17 50.38536 61.20692 36935 ft 481 kts 90°
2026-05-04 15:17 50.38729 61.36453 36935 ft 481 kts 91°
2026-05-04 15:18 50.38845 61.46890 36940 ft 482 kts 91°
2026-05-04 15:19 50.39011 61.62677 36948 ft 482 kts 91°
2026-05-04 15:19 50.39155 61.78448 36948 ft 482 kts 91°
2026-05-04 15:20 50.39241 61.88910 36952 ft 482 kts 91°
2026-05-04 15:20 50.39316 61.99440 36952 ft 482 kts 91°
2026-05-04 15:21 50.39379 62.09903 36949 ft 482 kts 91°
2026-05-04 15:22 50.39452 62.25684 36947 ft 481 kts 91°
2026-05-04 15:22 50.39510 62.41388 36944 ft 481 kts 91°
2026-05-04 15:23 50.39540 62.51880 36947 ft 481 kts 91°
2026-05-04 15:23 50.39557 62.62302 36947 ft 481 kts 91°
2026-05-04 15:24 50.39562 62.83302 36952 ft 481 kts 91°
2026-05-04 15:25 50.39556 62.93783 36956 ft 481 kts 91°
2026-05-04 15:26 50.39523 63.09451 36963 ft 480 kts 91°
2026-05-04 15:26 50.39463 63.25147 36967 ft 480 kts 92°
2026-05-04 15:27 50.39384 63.40839 36971 ft 479 kts 92°
2026-05-04 15:28 50.39284 63.56478 36970 ft 479 kts 92°
2026-05-04 15:29 50.39174 63.72119 36972 ft 479 kts 92°
2026-05-04 15:30 50.38812 64.08648 36984 ft 479 kts 92°
2026-05-04 15:31 50.38627 64.24309 36987 ft 479 kts 92°
2026-05-04 15:32 50.38263 64.50324 36999 ft 478 kts 92°
2026-05-04 15:34 50.37879 64.74676 37005 ft 478 kts 92°
2026-05-04 15:34 50.37568 64.92024 37009 ft 478 kts 92°
2026-05-04 15:35 50.37310 65.05913 37016 ft 478 kts 92°
2026-05-04 15:36 50.36990 65.21550 37024 ft 478 kts 92°
2026-05-04 15:36 50.36766 65.31879 37026 ft 478 kts 93°
2026-05-04 15:37 50.36525 65.42291 37028 ft 478 kts 93°
2026-05-04 15:37 50.36286 65.52722 37024 ft 478 kts 93°
2026-05-04 15:38 50.36047 65.63086 37033 ft 478 kts 93°
2026-05-04 15:38 50.35784 65.73511 37032 ft 478 kts 93°
2026-05-04 15:39 50.35515 65.83857 37036 ft 478 kts 93°
2026-05-04 15:40 50.35082 65.99451 37043 ft 478 kts 93°
2026-05-04 15:40 50.34794 66.09856 37043 ft 478 kts 93°
2026-05-04 15:41 50.34497 66.20210 37044 ft 477 kts 93°
2026-05-04 15:41 50.34182 66.30603 37046 ft 477 kts 93°
2026-05-04 15:42 50.33860 66.40993 37049 ft 477 kts 93°
2026-05-04 15:42 50.33535 66.51390 37045 ft 477 kts 94°
2026-05-04 15:43 50.33193 66.61771 37045 ft 477 kts 94°
2026-05-04 15:43 50.32845 66.72103 37045 ft 477 kts 94°
2026-05-04 15:44 50.32483 66.82477 37054 ft 478 kts 94°
2026-05-04 15:44 50.32113 66.92857 37059 ft 478 kts 94°
2026-05-04 15:45 50.32229 67.03205 37058 ft 477 kts 80°
2026-05-04 15:45 50.33928 67.13219 37054 ft 476 kts 72°
2026-05-04 15:46 50.35852 67.23158 37060 ft 476 kts 72°
2026-05-04 15:46 50.37735 67.33044 37060 ft 476 kts 72°
2026-05-04 15:47 50.39626 67.43010 37063 ft 476 kts 72°
2026-05-04 15:47 50.41513 67.52991 37065 ft 477 kts 72°
2026-05-04 15:48 50.43377 67.62908 37065 ft 477 kts 72°
2026-05-04 15:48 50.46184 67.77888 37071 ft 477 kts 72°
2026-05-04 15:49 50.48040 67.87889 37073 ft 477 kts 72°
2026-05-04 15:49 50.49888 67.97901 37068 ft 477 kts 72°
2026-05-04 15:50 50.51717 68.07864 37074 ft 477 kts 72°
2026-05-04 15:50 50.53101 68.18059 37079 ft 478 kts 82°
2026-05-04 15:51 50.53965 68.28423 37084 ft 478 kts 82°
2026-05-04 15:51 50.54838 68.38813 37087 ft 478 kts 82°
2026-05-04 15:52 50.55696 68.49132 37082 ft 478 kts 82°
2026-05-04 15:52 50.56540 68.59513 37092 ft 478 kts 82°
2026-05-04 15:53 50.57380 68.69905 37092 ft 478 kts 82°
2026-05-04 15:53 50.58215 68.80303 37091 ft 478 kts 82°
2026-05-04 15:54 50.59030 68.90622 37098 ft 478 kts 82°
2026-05-04 15:54 50.59835 69.00997 37099 ft 477 kts 82°
2026-05-04 15:55 50.60631 69.11374 37097 ft 477 kts 82°
2026-05-04 15:55 50.61427 69.21754 37100 ft 477 kts 82°
2026-05-04 15:56 50.62208 69.32124 37099 ft 477 kts 82°
2026-05-04 15:56 50.62983 69.42496 37101 ft 477 kts 82°
2026-05-04 15:57 50.63365 69.47677 36566 ft 486 kts 82°
2026-05-04 15:57 50.63753 69.52997 35732 ft 491 kts 82°
2026-05-04 15:57 50.64143 69.58365 35066 ft 491 kts 82°
2026-05-04 15:57 50.64525 69.63689 34635 ft 486 kts 82°
2026-05-04 15:58 50.64908 69.69022 33852 ft 490 kts 82°
2026-05-04 15:58 50.65285 69.74308 33040 ft 492 kts 82°
2026-05-04 15:58 50.65663 69.79633 32508 ft 487 kts 82°
2026-05-04 15:58 50.66035 69.84930 31940 ft 484 kts 82°
2026-05-04 15:59 50.66403 69.90215 31371 ft 481 kts 82°
2026-05-04 15:59 50.66763 69.95383 30811 ft 477 kts 82°
2026-05-04 15:59 50.67119 70.00550 30314 ft 472 kts 82°
2026-05-04 15:59 50.67473 70.05693 29760 ft 468 kts 82°
2026-05-04 16:00 50.67820 70.10779 29126 ft 465 kts 82°
2026-05-04 16:00 50.68163 70.15824 28587 ft 459 kts 82°
2026-05-04 16:00 50.68647 70.20772 28097 ft 451 kts 75°
2026-05-04 16:00 50.69576 70.25397 27639 ft 443 kts 65°
2026-05-04 16:01 50.70737 70.29868 27190 ft 437 kts 65°
2026-05-04 16:01 50.71878 70.34290 26747 ft 432 kts 65°
2026-05-04 16:01 50.73002 70.38665 26308 ft 427 kts 66°
2026-05-04 16:01 50.74111 70.42994 25890 ft 422 kts 66°
2026-05-04 16:02 50.75195 70.47228 25469 ft 419 kts 66°
2026-05-04 16:02 50.76279 70.51478 25051 ft 416 kts 66°
2026-05-04 16:02 50.78423 70.59916 24206 ft 411 kts 66°
2026-05-04 16:03 50.79486 70.64095 23775 ft 409 kts 66°
2026-05-04 16:03 50.80543 70.68252 23282 ft 406 kts 66°
2026-05-04 16:03 50.81589 70.72375 22845 ft 402 kts 66°
2026-05-04 16:03 50.82624 70.76466 22410 ft 398 kts 66°
2026-05-04 16:04 50.83647 70.80513 21964 ft 395 kts 67°
2026-05-04 16:04 50.85654 70.88480 21058 ft 389 kts 67°
2026-05-04 16:04 50.86651 70.92452 20617 ft 386 kts 67°
2026-05-04 16:05 50.87639 70.96396 20162 ft 384 kts 67°
2026-05-04 16:05 50.88622 71.00309 19717 ft 381 kts 66°
2026-05-04 16:05 50.91525 71.07182 18815 ft 372 kts 41°
2026-05-04 16:06 50.93526 71.09748 18362 ft 367 kts 30°
2026-05-04 16:06 50.99636 71.13808 17171 ft 353 kts 16°
2026-05-04 16:07 51.02692 71.15521 16589 ft 349 kts 16°
2026-05-04 16:07 51.09493 71.19366 15329 ft 342 kts 16°
2026-05-04 16:08 51.11728 71.20629 14903 ft 340 kts 16°
2026-05-04 16:08 51.18376 71.24381 13625 ft 335 kts 16°
2026-05-04 16:09 51.22509 71.27770 12763 ft 337 kts 36°
2026-05-04 16:09 51.25634 71.33316 11882 ft 338 kts 49°
2026-05-04 16:10 51.28561 71.39205 10997 ft 337 kts 49°
2026-05-04 16:11 51.32824 71.47798 10129 ft 311 kts 52°
2026-05-04 16:11 51.33733 71.50863 9811 ft 302 kts 77°
2026-05-04 16:12 51.31760 71.59825 8407 ft 295 kts 139°
2026-05-04 16:12 51.27283 71.66710 6789 ft 312 kts 137°
2026-05-04 16:13 51.24312 71.71491 6278 ft 283 kts 136°
2026-05-04 16:13 51.21351 71.74496 6031 ft 235 kts 180°
2026-05-04 16:14 51.18649 71.72386 5366 ft 219 kts 224°
2026-05-04 16:14 51.16576 71.69089 4809 ft 198 kts 223°
2026-05-04 16:15 51.13897 71.64868 4056 ft 167 kts 222°
2026-05-04 16:16 51.12327 71.62400 3661 ft 148 kts 221°
2026-05-04 16:16 51.10212 71.59080 3077 ft 140 kts 221°
2026-05-04 16:17 51.08831 71.56914 2707 ft 140 kts 221°
2026-05-04 16:18 51.06742 71.53640 2147 ft 140 kts 221°
2026-05-04 16:18 51.06054 71.52558 1951 ft 141 kts 222°
2026-05-04 16:19 51.04169 71.49616 1412 ft 141 kts 223°
2026-05-04 16:19 51.02794 71.47495 1174 ft 126 kts 219°
2026-05-04 16:20 51.00670 71.44117 2789 ft 155 kts 223°
2026-05-04 16:20 50.99037 71.41412 3497 ft 188 kts 224°
2026-05-04 16:21 50.95596 71.35921 3656 ft 260 kts 223°
2026-05-04 16:22 50.93326 71.31485 3792 ft 267 kts 250°
2026-05-04 16:22 50.95003 71.23575 5900 ft 278 kts 330°
2026-05-04 16:23 51.00286 71.25082 6110 ft 279 kts 42°
2026-05-04 16:24 51.06093 71.33344 6112 ft 280 kts 41°
2026-05-04 16:25 51.08975 71.37455 6110 ft 280 kts 41°
2026-05-04 16:26 51.14614 71.45506 6109 ft 250 kts 42°
2026-05-04 16:26 51.18689 71.51339 6110 ft 278 kts 41°
2026-05-04 16:27 51.21579 71.55484 6107 ft 279 kts 41°
2026-05-04 16:28 51.25736 71.61829 6104 ft 262 kts 59°
2026-05-04 16:28 51.25468 71.69677 5774 ft 248 kts 132°
2026-05-04 16:29 51.20042 71.73936 5537 ft 202 kts 203°
2026-05-04 16:30 51.16913 71.69621 4884 ft 200 kts 224°
2026-05-04 16:31 51.14950 71.66527 4347 ft 196 kts 224°
2026-05-04 16:31 51.12206 71.62210 3590 ft 168 kts 223°
2026-05-04 16:32 51.09966 71.58694 2997 ft 143 kts 223°
2026-05-04 16:33 51.08556 71.56481 2620 ft 142 kts 223°
2026-05-04 16:33 51.07162 71.54298 2240 ft 142 kts 223°
2026-05-04 16:34 51.05760 71.52094 1846 ft 142 kts 223°
2026-05-04 16:34 51.05060 71.50991 1642 ft 141 kts 223°
2026-05-04 16:35 51.02973 71.47746 1166 ft 127 kts 224°
2026-05-04 16:35 51.02570 71.46843 1163 ft 7 kts 311°
2026-05-04 16:36 51.02571 71.46841 1164 ft 0 kts 312°
2026-05-04 16:37 51.02596 71.46798 1164 ft 6 kts 314°
2026-05-04 16:37 51.02615 71.46746 1164 ft 3 kts 237°
2026-05-04 16:37 51.02609 71.46726 1164 ft 3 kts 249°
2026-05-04 16:38 51.02566 71.46637 1164 ft 8 kts 228°
2026-05-04 16:39 51.02404 71.46389 1164 ft 8 kts 224°
2026-05-04 16:39 51.02374 71.46200 1162 ft 13 kts 313°
2026-05-04 16:40 51.02533 71.46162 1164 ft 16 kts 44°
2026-05-04 16:40 51.02659 71.46234 1164 ft 6 kts 317°
2026-05-04 16:41 51.02666 71.46222 1163 ft 0 kts 312°